Location: Newark
(27.9675°N, 86.8869°E)
Time: 20:56:18
(UTC+00:00)

Altair - Pass Details

Date: 30 October 2019
Orbit: 1502 x 1682 km, 47.2° (Epoch: 17 November)

Event Time Altitude Azimuth Distance (km) Brightness Sun altitude
Rises 00:10:50 0° 203° (SSW) 4,620 9.9 -3.2°
Reaches altitude 10° 00:14:03 10° 196° (SSW) 3,641 9.5 -2.5°
Maximum altitude 00:22:26 42° 129° (SE) 2,052 9.0 -0.7°
Drops below altitude 10° 00:30:59 10° 63° (ENE) 3,721 10.3 1.1°
Sets 00:34:17 0° 56° (ENE) 4,730 10.7 1.8°
